Preview of NWS' New Version of Forecast
This preview is not operational and should not be used for support decisions.

Regional Weather Roundup (RWR)

Issued by National Weather Service (NWS)

                            
000
ASUS44 KMEG 201710
RWRTN 
TENNESSEE HOURLY STATE WEATHER ROUNDUP
NATIONAL WEATHER SERVICE MEMPHIS TN
1200 PM CDT TUE AUG 20 2019

TNZ002-004-019-021-049-052-054-088>092-201800-
WEST TENNESSEE
  
CITY           SKY/WX    TMP DP  RH WIND       PRES   REMARKS
MEMPHIS INTL   FAIR      92  76  59 VRB6      30.09F HX 104           
NWS MEMPHIS      N/A     94 N/A N/A MISG        N/A                   
JACKSON        FAIR      91  76  61 VRB7      30.09F HX 103           
DYERSBURG      PTSUNNY   91  78  65 S7        30.08F HX 106           
SOMERVILLE     MOSUNNY   91  73  55 SW6       30.08F HX 100           
COVINGTON      MOSUNNY   91  77  62 SE6       30.07F HX 105           
UNION CITY     SUNNY     91  79  66 SW7       30.05F HX 107           
BOLIVAR        SUNNY     90  73  58 S6        30.09F HX  98           
PARIS          MOSUNNY   91  75  59 S8        30.07F HX 102           
HUNTINGDON     MOSUNNY   91  75  59 S7        30.08F HX 102           
LEXINGTON      SUNNY     91  73  55 S8        30.08F HX 100           
SELMER         MOSUNNY   90  75  62 VRB6      30.10F HX 100           
SAVANNAH       PTSUNNY   90  77  66 CALM      30.09F HAZE    HX 102   
$$

TNZ008-025-027-028-033-062-065-066-201800-
NORTH MIDDLE TENNESSEE
  
CITY           SKY/WX    TMP DP  RH WIND       PRES   REMARKS
NASHVILLE      PTSUNNY   92  72  51 VRB3      30.11F HX  99           
DICKSON        MOSUNNY   91  72  52 SW7       30.10F HX  98           
PORTLAND       SUNNY     91  75  59 SW6       30.10F HX 102           
CLARKSVILLE    FAIR      92  75  57 S6        30.08F HX 103           
LEBANON        SUNNY     90  73  58 VRB5      30.09F HX  98           
SMYRNA         FAIR      90  75  61 VRB3      30.12F HX 100           
MURFREESBORO   SUNNY     90  72  55 CALM      30.10F HX  96           
COOKEVILLE     SUNNY     88  72  58 SW6       30.13F HX  94           
LIVINGSTON     SUNNY     88  72  58 SW7       30.14F HX  94           
GALLATIN       SUNNY     91  75  59 CALM      30.12F HX 102           
CROSSVILLE     FAIR      84  67  56 CALM      30.20F                  
ROCKWOOD       MOSUNNY   86  70  58 SE7       30.17F HX  90           
$$

TNZ061-075-076-078-094-096-097-201800-
SOUTH MIDDLE TENNESSEE
  
CITY           SKY/WX    TMP DP  RH WIND       PRES   REMARKS
LAWRENCEBURG   SUNNY     86  73  66 CALM      30.13F HX  93           
LEWISBURG      SUNNY     88  73  62 VRB5      30.12F HX  96           
FAYETTEVILLE   SUNNY     88  72  58 CALM      30.13F HX  94           
TULLAHOMA      SUNNY     88  72  58 VRB5      30.13F HX  94           
WINCHESTER     SUNNY     88  70  55 CALM      30.13F HX  92           
MCMINNVILLE    SUNNY     86  72  62 SW3       30.13F HX  92           
COLUMBIA       SUNNY     88  75  66 CALM      30.10F HX  97           
SHELBYVILLE    SUNNY     88  72  58 SW6       30.13F HX  94           
$$

TNZ017-018-042-046-047-201800-
NORTHEAST TENNESSEE
  
CITY           SKY/WX    TMP DP  RH WIND       PRES   REMARKS
TRI CITIES     FAIR      89  68  49 VRB3      30.17F HX  93           
ELIZABETHTON   FAIR      90  66  45 SE6       30.16F HX  92           
GREENEVILLE    SUNNY     86  68  54 VRB5      30.17F                  
$$

TNZ012-013-036-069-073-074-201800-
CENTRAL EAST TENNESSEE
  
CITY           SKY/WX    TMP DP  RH WIND       PRES   REMARKS
KNOXVILLE      FAIR      88  65  46 W6        30.13F HX  90           
OAK RIDGE      FAIR      89  68  49 CALM      30.15F HX  93           
DOWNTOWN KNOXV SUNNY     88  70  55 CALM      30.13F HX  92           
GATLINBURG     SUNNY     91  68  46 VRB6      30.12F HX  95           
MORRISTOWN     SUNNY     86  68  54 VRB3      30.15F                  
JACKSBORO      SUNNY     90  73  58 S6        30.17F HX  98           
$$

TNZ083-085-099-201800-
SOUTHEAST TENNESSEE
  
CITY           SKY/WX    TMP DP  RH WIND       PRES   REMARKS
CHATTANOOGA    FAIR      89  69  51 CALM      30.13F HX  93           
DAYTON         MOSUNNY   90  68  48 VRB3      30.12F HX  93           
$$

SKY/WX REPORTED AS FAIR MEANS FEW OR NO CLOUDS BELOW
12 THOUSAND FEET.